Location: Killam
(52.7910°N, 111.8608°W)
Time: 23:14:46
(UTC+00:00)

O/OREOS (USA 219) - Visible Passes

Search period start: 13 March 2026 00:00
Search period end: 23 March 2026 00:00
Orbit: 576 x 599 km, 72.0° (Epoch: 13 March)

Date Brightness Start Highest point End Pass type
(mag) Time Alt. Az. Time Alt. Az. Time Alt. Az.
13 Mar ? 02:25:56 10° NNW 02:30:17 68° WSW 02:34:33 10° SSE visible
14 Mar ? 02:33:25 10° NW 02:37:35 45° WSW 02:41:41 10° S visible
15 Mar ? 02:41:00 10° NW 02:44:49 30° WSW 02:48:35 10° SSW visible
16 Mar ? 02:48:45 10° NW 02:51:59 21° WSW 02:55:12 10° SSW visible
17 Mar ? 02:56:51 10° WNW 02:59:07 14° W 03:01:20 10° SW visible
